TimeHST,TemperatureF,Dew PointF,Humidity,Sea Level PressureIn,VisibilityMPH,Wind Direction,Wind SpeedMPH,Gust SpeedMPH,PrecipitationIn,Events,Conditions,WindDirDegrees,DateUTC
12:53 AM,78.1,64.0,62,29.98,10.0,East,4.6,-,N/A,,Clear,80,2013-09-03 10:53:00
1:53 AM,77.0,63.0,62,29.96,10.0,NNE,4.6,-,N/A,,Clear,20,2013-09-03 11:53:00
2:53 AM,75.9,63.0,64,29.95,10.0,Calm,Calm,-,N/A,,Clear,0,2013-09-03 12:53:00
3:53 AM,75.9,64.9,69,29.94,10.0,East,3.5,-,N/A,,Partly Cloudy,90,2013-09-03 13:53:00
4:53 AM,75.0,64.9,71,29.95,10.0,East,4.6,-,N/A,,Clear,90,2013-09-03 14:53:00
5:53 AM,75.0,64.0,69,29.96,10.0,ESE,4.6,-,N/A,,Clear,120,2013-09-03 15:53:00
6:53 AM,75.9,63.0,64,29.98,10.0,North,10.4,-,N/A,,Mostly Cloudy,10,2013-09-03 16:53:00
7:53 AM,80.1,62.1,54,29.99,10.0,WNW,8.1,-,N/A,,Clear,300,2013-09-03 17:53:00
8:53 AM,81.0,63.0,54,30.00,10.0,Variable,4.6,-,N/A,,Clear,0,2013-09-03 18:53:00
9:53 AM,82.9,66.0,56,29.99,10.0,SW,8.1,-,N/A,,Clear,220,2013-09-03 19:53:00
10:53 AM,84.0,66.9,56,29.99,10.0,WSW,10.4,-,N/A,,Clear,250,2013-09-03 20:53:00
11:53 AM,84.9,68.0,57,29.97,10.0,WSW,10.4,-,N/A,,Clear,240,2013-09-03 21:53:00
12:53 PM,86.0,66.0,51,29.95,10.0,SSW,12.7,-,N/A,,Mostly Cloudy,210,2013-09-03 22:53:00
1:53 PM,86.0,66.0,51,29.94,10.0,SSW,12.7,-,N/A,,Partly Cloudy,210,2013-09-03 23:53:00
2:53 PM,84.9,66.9,55,29.93,10.0,SSW,13.8,-,N/A,,Overcast,200,2013-09-04 00:53:00
3:53 PM,82.9,68.0,60,29.91,10.0,SSW,11.5,-,N/A,,Overcast,200,2013-09-04 01:53:00
4:53 PM,82.9,68.0,60,29.92,10.0,South,10.4,-,N/A,,Overcast,190,2013-09-04 02:53:00
5:53 PM,82.0,68.0,62,29.93,10.0,South,8.1,-,N/A,,Mostly Cloudy,190,2013-09-04 03:53:00
6:53 PM,81.0,68.0,65,29.95,10.0,South,6.9,-,N/A,,Scattered Clouds,190,2013-09-04 04:53:00
7:53 PM,80.1,68.0,67,29.96,10.0,SSW,4.6,-,N/A,,Overcast,210,2013-09-04 05:53:00
8:53 PM,81.0,60.1,49,29.98,10.0,NE,8.1,-,N/A,,Clear,50,2013-09-04 06:53:00
9:53 PM,79.0,61.0,54,29.98,10.0,NE,6.9,-,N/A,,Clear,40,2013-09-04 07:53:00
10:53 PM,80.1,59.0,48,29.99,10.0,NNE,6.9,-,N/A,,Clear,20,2013-09-04 08:53:00
11:53 PM,79.0,55.9,45,29.99,10.0,NE,11.5,-,N/A,,Partly Cloudy,40,2013-09-04 09:53:00